Zurück zum Katalog

COSMOS 1720

AktivMilitärLEO
NORAD 16453·PAYLOAD·🇷🇺 Russia

Gestartet Jan 9, 1986 von Plesetsk Cosmodrome

Loading…

Nächste Überflüge (nächste 24 Stunden)

TLE

AktuellSource: Space-Track

Epoche: Sep 14, 2026, 23:35 UTC

1 16453U 86002E   26257.98265773  .00000006  00000-0  14158-3 0  9992
2 16453  73.9889 143.8739 0027682 155.5047 217.0222 12.50636970857355

Verfolge COSMOS 1720 in Echtzeit mit AllMySat

Download on the App Store